Showing default

KUIPER-00027, 63740

Orbit data source: Space-Track

KUIPER-00027, 63740 is a payload satellite owned by Kuiper Systems (US) in LEO that was launched on Mon, 28 Apr 2025 UTC via an ATLAS V 551 launch vehicle from the Air Force Eastern Test Range (AFETR). Payload-class satellites include a variety of spacecraft equipped with specific instruments for various scientific and technological missions. These include communications satellites like Starlink; space stations such as the ISS; scientific satellites like the Hubble; Earth observation satellites from companies like Planet Labs, Umbra, and HawkEye 360; GPS; miniature CubeSats for education and research; and military/defense satellites.

Loading next visibility...
Identifier
63740, 2025-088S
Orbit
LEO
Country
Flag of USUS
Related business
Manufacturer
Kuiper Systems
Mission
Operational Commercial Communications
Bus & Motor
KUIPER, Unknown motor
Mass
~490 kg wet, ~490 kg dry
Launch date (UTC)
2025-04-28 (8 months ago)
Launch vehicle
ATLAS V 551
Launch site
Air Force Eastern Test Range (AFETR)
Object type
Payload
Rocket body
Debris
Shape & HBR
Box + 2 Pan, 3.4 m
Radar Cross Section
2.326 m², Large (>1 m²)

Expand to show TLE details & history
Last TLE update: 17 hours ago

TLE from 17 hours ago
0 KUIPER-00027
1 63740U 25088S   25348.91668981 -.00005969  00000-0 -75578-3 0  9999
2 63740  51.8992 110.4412 0003963 230.9580 162.6879 14.79859074  1629
Epoch: 2025-12-14T22:00Z
TLE epoch observation values (Epoch: 2025-12-14T22:00:01.999Z)
Latitude
25.93359°
Longitude
78.8974°
Altitude
633.383 km
Speed
7.544 km/s
True Right ascension
08h 50m 54s
True Declination
25° 47' 46"
Sunlit
Object was in full shadow at epoch
Visualization orbit readout
Latitude
Unknown
Longitude
Unknown
Altitude
Unknown
Speed
Unknown
Apparent Right ascension
Unknown
Apparent Declination
Unknown
Sunlit
N/A
Visualization observer readout
Local Sidereal Time
13:19:00
Azimuth
Unknown
Elevation
Unknown
Doppler factor
Unknown
Orbital elements
Apogee altitude
632.998 km
Perigee altitude
627.443 km
Semi-major axis
7,008.357 km
Eccentricity
0.0004
Inclination
51.8992°
RAAN
110.4412°
Arg. of periapsis
230.958°
True anomaly
162.70141°
Mean anomaly
162.6879°
Eccentric anomaly
162.69465°
Mean motion
3.69929 °/min
Orbital period
97.32 mins
BSTAR
-0.00075578
Loading maneuver chart data...
Computing Atmospheric mass density...
Loading historical data...
Loading historical data...
Loading historical data...
Loading historical data...
Loading historical data...
Loading historical data...
Loading historical data...

Documentation

Showing up to 5 results
|